Volver al catálogo

STARLINK-6209

ActivoComunicacionesVLEO
NORAD 56877·PAYLOAD·🇺🇸 United States

Lanzado Jun 12, 2023 desde Cape Canaveral Space Force Station

Loading…

Próximos Pases (próximas 24 horas)

TLE

ActualizadoSource: CelesTrak SupGP

Época: Sep 14, 2026, 22:22 UTC

1 56877C 23083B   26257.93243056  .00035572  00000+0  12886-2 0  2578
2 56877  43.0011  96.1129 0001620 235.4784 230.7139 15.27555054    19

Sigue STARLINK-6209 en tiempo real con AllMySat

Download on the App Store